Weather Roundup
Issued by NWS Springfield, MO

Home | Current Version | Previous Version | Text Only | Print | Product List | Glossary On
Versions: 1 2 3 4 5 6 7 8 9 10 11 12 13 14 15 16 17 18 19 20 21 22 23 24 25 26 27 28 29 30 31 32 33 34 35 36 37 38 39 40 41 42 43 44 45 46 47 48 49 50
000
NZUS99 KSGF 261907
HRRSGF

HOURLY WEATHER
NATIONAL WEATHER SERVICE SPRINGFIELD MO
200 PM CDT THU APR 26 2018

......SGF CWA......

CITY           SKY/WX    TMP DP  RH WIND       PRES   REMARKS
SPRINGFIELD    CLOUDY    59  47  64 CALM      29.98F
JOPLIN         PTSUNNY   58  49  72 NW8       30.02F
WEST PLAINS    SUNNY     62  47  57 NE9       29.96F
ROLLA          PTSUNNY   62  45  53 CALM      29.96F
OSAGE BEACH    CLOUDY    63  47  55 N6        29.97F
BRANSON        PTSUNNY   55  48  76 NW5       29.99F

......SURROUNDING SGF CWA......

CITY           SKY/WX    TMP DP  RH WIND       PRES   REMARKS
CHANUTE        PTSUNNY   63  47  55 VRB7      30.01F
PARSONS        CLOUDY    62  48  60 CALM      30.02F
COFFEYVILLE    PTSUNNY   61  49  64 CALM      30.01F
EMPORIA        MOSUNNY   63  45  51 CALM      29.99F
GROVE OK       CLOUDY    57  46  67 N5        30.03F
ROGERS AR      CLOUDY    56  47  71 NW9       30.01F
SILOAM SPRINGS CLOUDY    56  49  77 NW7       30.02F
HARRISON AR    CLOUDY    57  49  74 NW7       29.98F
NEAR YELLVILLE MOSUNNY   63  50  62 N12       29.96F

......KANSAS AND MISSOURI......

CITY           SKY/WX    TMP DP  RH WIND       PRES   REMARKS
KANSAS CTY INT CLOUDY    63  45  51 W6        29.99F
DOWNTOWN KC    MOSUNNY   64  44  48 W5        29.98F
COLUMBIA       CLOUDY    66  43  43 MISG      29.95F
SEDALIA        CLOUDY    66  44  45 N8        29.98F
ST JOSEPH      PTSUNNY   66  46  48 W13       29.98F
ST LOUIS       PTSUNNY   69  41  36 NW6       29.93F
SPIRIT OF STL  MOSUNNY   68  43  40 VRB3      29.92F
KIRKSVILLE     CLOUDY    67  36  31 W7G20     29.95F
WICHITA        CLOUDY    66  42  41 VRB5      30.01S
TOPEKA         CLOUDY    65  49  56 MISG      29.99F
OLATHE         CLOUDY    61  46  57 MISG      29.99F

......TENNESSEE......

CITY           SKY/WX    TMP DP  RH WIND       PRES   REMARKS
MEMPHIS        CLOUDY    61  57  87 NW8       29.88S
NASHVILLE      LGT RAIN  59  54  83 VRB3      29.87F

......ARKANSAS.......

CITY           SKY/WX    TMP DP  RH WIND       PRES   REMARKS
FAYETTEVILLE   CLOUDY    56  48  74 N6        30.00S
FT SMITH       MOSUNNY   64  50  60 VRB5      29.99F
LITTLE ROCK    PTSUNNY   64  50  60 NW16      29.94S

......OKLAHOMA.......

CITY           SKY/WX    TMP DP  RH WIND       PRES   REMARKS
TULSA          PTSUNNY   59  47  64 NE6       30.01F
PONCA CITY     SUNNY     63  45  51 VRB3      30.00F
MCALESTER      CLOUDY    59  48  67 N9        30.03F
OKLAHOMA CITY  MOSUNNY   65  41  41 N8        30.00F

......IOWA............

CITY           SKY/WX    TMP DP  RH WIND       PRES   REMARKS
DES MOINES     PTSUNNY   70  29  21 W14G20    29.91F
QUAD CITIES    FAIR      69  33  26 N8        29.90F

......ILLINOIS........

CITY           SKY/WX    TMP DP  RH WIND       PRES   REMARKS
QUINCY         CLOUDY    66  29  24 NW5       29.92F
CHICAGO        PTSUNNY   64  28  25 CALM      29.90F





USA.gov is the U.S. government's official web portal to all federal, state and local government web resources and services.